CW6318 Weather Reports


Display with metric or nautical units.
time (UTC)temp
F
wind
direction
speed
MPH
gust
MPH
rain 1hr
in
rain 24hr
in
rain mn
in
humidity
%
barometer
mb
20260905195000 64 248 0.0 5.0 0.00 0.01 0.00 73 1000.3
20260905192506 64 96 0.0 1.0 0.00 0.01 0.00 70 1000.5
20260905192000 63 94 0.0 1.0 0.00 0.01 0.00 68 1000.5
20260905185503 62 94 0.0 0.0 0.00 0.01 0.00 70 1000.7
20260905185007 62 94 0.0 0.0 0.00 0.01 0.00 72 1000.8
20260905183959 61 94 0.0 0.0 0.00 0.01 0.00 73 1000.8
20260905183458 61 94 0.0 0.0 0.00 0.01 0.00 74 1000.9
20260905183004 61 94 0.0 0.0 0.00 0.01 0.00 73 1000.9
20260905182459 61 94 0.0 0.0 0.00 0.01 0.00 73 1000.9
20260905182003 61 94 0.0 0.0 0.00 0.01 0.00 75 1000.9
20260905181501 61 94 0.0 0.0 0.00 0.01 0.00 74 1001.0
20260905175500 61 84 0.0 0.0 0.00 0.01 0.00 76 1001.2
20260905175000 60 84 0.0 0.0 0.00 0.01 0.00 76 1001.2
20260905174006 59 84 0.0 0.0 0.00 0.01 0.00 76 1001.3
20260905172959 57 84 0.0 0.0 0.00 0.01 0.00 74 1001.4
20260905172000 57 84 0.0 0.0 0.00 0.01 0.00 73 1001.4
20260905171500 56 84 0.0 0.0 0.00 0.01 0.00 75 1001.4
20260905170459 56 84 0.0 0.0 0.00 0.01 0.00 71 1001.5
20260905170014 55 84 0.0 0.0 0.00 0.01 0.00 70 1001.5
20260905165007 54 84 0.0 0.0 0.00 0.01 0.00 66 1001.5
20260905163505 51 84 0.0 0.0 0.00 0.01 0.00 59 1001.5
20260905162958 51 84 0.0 0.0 0.00 0.01 0.00 57 1001.5
20260905162000 50 84 0.0 0.0 0.00 0.01 0.00 55 1001.5
20260905161459 49 84 0.0 0.0 0.00 0.01 0.00 55 1001.5
20260905160511 49 84 0.0 0.0 0.00 0.01 0.00 55 1001.6
20260905160001 48 84 0.0 0.0 0.00 0.01 0.00 55 1001.6
20260905155505 47 84 0.0 0.0 0.00 0.01 0.00 57 1001.6
20260905153506 47 84 0.0 0.0 0.00 0.01 0.00 58 1001.7
20260905152003 46 84 0.0 0.0 0.00 0.01 0.00 59 1001.8
20260905151500 46 84 0.0 0.0 0.00 0.01 0.00 59 1001.8
20260905150000 46 84 0.0 0.0 0.00 0.01 0.00 60 1001.8
20260905145459 46 84 0.0 0.0 0.00 0.01 0.00 60 1001.8
20260905144959 46 84 0.0 0.0 0.00 0.01 0.00 61 1001.8
20260905143504 46 84 0.0 0.0 0.00 0.01 0.00 61 1001.7
20260905142502 46 84 0.0 0.0 0.00 0.01 0.00 61 1001.7
20260905142006 45 84 0.0 0.0 0.00 0.01 0.00 62 1001.8
20260905141505 46 84 0.0 0.0 0.00 0.01 0.00 62 1001.7
20260905125514 47 232 0.0 0.0 0.00 0.01 0.00 61 1001.3
20260905124515 47 232 0.0 0.0 0.00 0.01 0.00 61 1001.2
20260905123010 47 232 0.0 0.0 0.00 0.01 0.00 61 1001.3
20260905113511 47 232 0.0 0.0 0.00 0.01 0.00 62 1001.2
20260905113006 47 232 0.0 0.0 0.00 0.01 0.00 62 1001.2
20260905112002 48 232 0.0 0.0 0.00 0.01 0.00 62 1001.1
20260905111001 48 232 0.0 0.0 0.00 0.01 0.00 62 1001.1
20260905110501 48 232 0.0 0.0 0.00 0.01 0.00 63 1001.0
20260905110001 48 232 0.0 0.0 0.00 0.01 0.00 63 1001.0
20260905105500 48 232 0.0 0.0 0.00 0.01 0.00 62 1001.0
20260905104005 48 232 0.0 0.0 0.00 0.01 0.00 63 1001.0
20260905103501 48 232 0.0 0.0 0.00 0.01 0.00 63 1001.0
20260905102501 48 232 0.0 0.0 0.00 0.01 0.00 63 1001.0
20260905102003 48 232 0.0 0.0 0.00 0.01 0.00 63 1001.0
20260905101520 48 232 0.0 0.0 0.00 0.01 0.00 63 1001.0
20260905100508 49 232 0.0 0.0 0.00 0.01 0.00 63 1001.0
20260905100005 49 232 0.0 0.0 0.00 0.01 0.00 63 1001.0
20260905095506 49 232 0.0 0.0 0.00 0.01 0.00 63 1001.1
20260905094502 49 232 0.0 0.0 0.00 0.01 0.00 63 1001.0
20260905094001 49 232 0.0 0.0 0.00 0.01 0.00 63 1001.0
20260905093500 49 232 0.0 0.0 0.00 0.01 0.00 63 1001.0
20260905093002 49 232 0.0 0.0 0.00 0.01 0.00 63 1001.0
20260905092501 49 232 0.0 0.0 0.00 0.01 0.00 63 1001.0
20260905092000 49 232 0.0 0.0 0.00 0.01 0.00 63 1001.0
20260905091501 49 232 0.0 0.0 0.00 0.01 0.00 63 1000.9
20260905090002 49 232 0.0 0.0 0.00 0.01 0.00 64 1000.9
20260905085500 49 232 0.0 0.0 0.00 0.01 0.00 64 1000.9
20260905085001 49 232 0.0 0.0 0.00 0.01 0.00 64 1001.0
20260905084504 50 232 0.0 0.0 0.00 0.01 0.00 64 1001.0
20260905084005 50 232 0.0 0.0 0.00 0.01 0.00 64 1001.0
20260905083502 50 232 0.0 0.0 0.00 0.01 0.00 64 1001.0
20260905082502 50 232 0.0 0.0 0.00 0.01 0.00 65 1000.9
20260905081502 50 232 0.0 0.0 0.00 0.01 0.00 65 1001.0
20260905081002 50 232 0.0 0.0 0.00 0.01 0.00 65 1001.0
20260905080504 50 232 0.0 0.0 0.00 0.01 0.00 65 1001.0
20260905074506 50 232 0.0 0.0 0.01 0.01 0.00 66 1000.9
20260905074006 50 232 0.0 0.0 0.01 0.01 0.00 66 1000.9
20260905072504 50 232 0.0 0.0 0.01 0.01 0.00 66 1000.8
20260905071507 50 232 0.0 0.0 0.01 0.01 0.00 66 1000.6
20260905064503 51 232 0.0 0.0 0.00 0.00 0.00 66 1000.5
20260905063004 51 232 0.0 0.0 0.00 0.00 0.00 66 1000.4
20260905062018 51 232 0.0 0.0 0.00 0.00 0.00 66 1000.4
20260905061521 51 232 0.0 0.0 0.00 0.00 0.00 66 1000.4
20260905060010 51 232 0.0 0.0 0.00 0.01 0.00 66 1000.4
20260905055005 51 232 0.0 0.0 0.00 0.01 0.00 67 1000.4
20260905054010 52 232 0.0 0.0 0.00 0.01 0.00 68 1000.3
20260905053004 52 232 0.0 0.0 0.00 0.01 0.00 69 1000.3
20260905052500 52 232 0.0 0.0 0.00 0.01 0.00 69 1000.3
20260905051504 52 232 0.0 0.0 0.00 0.01 0.00 69 1000.4
20260905050511 52 232 0.0 0.0 0.00 0.01 0.00 69 1000.3
20260905044502 52 232 0.0 0.0 0.00 0.01 0.00 69 1000.3
20260905044001 52 232 0.0 0.0 0.00 0.01 0.00 69 1000.2
20260905043001 53 232 0.0 0.0 0.00 0.01 0.00 69 1000.2
20260905042501 53 232 0.0 0.0 0.00 0.01 0.00 70 1000.2
20260905042001 53 232 0.0 0.0 0.00 0.01 0.00 70 1000.2
20260905041505 53 232 0.0 0.0 0.00 0.01 0.00 70 1000.2
20260905041001 53 232 0.0 0.0 0.00 0.01 0.00 70 1000.1
20260905040500 53 232 0.0 0.0 0.00 0.01 0.00 70 1000.1
20260905040000 53 232 0.0 0.0 0.00 0.01 0.00 70 1000.1
20260905034000 54 232 0.0 0.0 0.00 0.01 0.00 71 999.9
20260905033001 54 232 0.0 0.0 0.00 0.01 0.00 71 999.7
20260905032500 54 232 0.0 0.0 0.00 0.01 0.00 71 999.7
20260905031959 55 232 0.0 0.0 0.00 0.01 0.00 71 999.6
20260905031002 55 232 0.0 0.0 0.00 0.01 0.00 71 999.5
20260905025500 56 232 0.0 0.0 0.00 0.01 0.00 71 999.4
20260905024500 56 232 0.0 0.0 0.00 0.01 0.00 71 999.4
20260905024001 56 232 0.0 0.0 0.00 0.01 0.00 71 999.4
20260905023458 56 232 0.0 0.0 0.00 0.01 0.00 71 999.4
20260905022959 56 232 0.0 0.0 0.00 0.01 0.00 71 999.4
20260905022459 56 232 0.0 0.0 0.00 0.01 0.00 71 999.5
20260905022000 56 232 0.0 0.0 0.00 0.01 0.00 71 999.5
20260905021502 56 232 0.0 0.0 0.00 0.01 0.00 71 999.5
20260905021001 57 232 0.0 0.0 0.00 0.01 0.00 71 999.5
20260905020501 57 232 0.0 0.0 0.00 0.01 0.00 70 999.4
20260905020005 57 232 0.0 0.0 0.00 0.01 0.00 70 999.2
20260905015502 57 232 0.0 0.0 0.00 0.01 0.00 71 999.1
20260905015001 57 232 0.0 0.0 0.00 0.01 0.00 71 999.0
20260905014502 57 232 0.0 0.0 0.00 0.01 0.00 72 998.9
20260905014001 57 232 0.0 0.0 0.00 0.01 0.00 73 998.8
20260905013502 57 232 0.0 0.0 0.00 0.01 0.00 73 998.8
20260905013001 57 232 0.0 0.0 0.00 0.01 0.00 73 998.8
20260905012501 57 232 0.0 0.0 0.00 0.01 0.00 73 998.7
20260905012001 57 232 0.0 0.0 0.00 0.01 0.00 72 998.6
20260905011500 57 232 0.0 0.0 0.00 0.01 0.00 72 998.6
20260905011002 57 232 0.0 0.0 0.00 0.01 0.00 73 998.6
20260905010502 57 232 0.0 0.0 0.00 0.01 0.00 73 998.6
20260905010002 57 232 0.0 0.0 0.00 0.01 0.00 73 998.6
20260905005004 57 232 0.0 0.0 0.00 0.02 0.00 74 998.6
20260905004503 58 232 0.0 0.0 0.00 0.02 0.00 75 998.6
20260905004003 58 232 0.0 0.0 0.00 0.02 0.00 75 998.6
20260905003500 58 232 0.0 0.0 0.00 0.02 0.00 75 998.5
20260905002505 58 232 0.0 0.0 0.00 0.02 0.00 75 998.5
20260905002001 58 232 0.0 0.0 0.00 0.02 0.00 75 998.5
20260905001503 58 232 0.0 0.0 0.00 0.02 0.00 75 998.6
20260905001009 58 232 0.0 0.0 0.00 0.02 0.00 75 998.6
20260905000503 58 232 0.0 0.0 0.00 0.02 0.00 75 998.7
20260905000004 57 232 0.0 0.0 0.00 0.02 0.00 76 998.8
20260904235004 57 232 0.0 0.0 0.00 0.02 0.00 75 998.6
20260904234500 57 232 0.0 0.0 0.00 0.02 0.00 76 998.5
20260904234006 57 232 0.0 0.0 0.00 0.02 0.00 75 998.5
20260904232003 57 232 0.0 0.0 0.00 0.02 0.00 74 998.6
20260904231505 56 232 0.0 0.0 0.00 0.02 0.00 74 998.5
20260904231003 56 232 0.0 0.0 0.00 0.02 0.00 72 998.6
20260904230002 56 232 0.0 0.0 0.00 0.02 0.00 70 998.5
20260904225502 56 232 0.0 0.0 0.00 0.02 0.00 69 998.5
20260904225006 56 232 0.0 0.0 0.00 0.02 0.00 70 998.5
20260904224003 56 232 0.0 0.0 0.00 0.02 0.00 72 998.5
20260904223508 57 232 0.0 0.0 0.00 0.02 0.00 73 998.5
20260904223007 57 232 0.0 0.0 0.00 0.02 0.00 73 998.4
20260904222005 57 232 0.0 0.0 0.00 0.02 0.00 74 998.4
20260904221007 57 232 0.0 0.0 0.00 0.02 0.00 74 998.4
20260904215004 58 227 0.0 0.0 0.00 0.03 0.00 69 998.4
20260904213504 58 227 0.0 0.0 0.00 0.03 0.00 69 998.0
20260904213004 58 227 0.0 0.0 0.00 0.03 0.00 69 997.9
20260904212507 58 227 0.0 0.0 0.00 0.03 0.00 69 997.9
20260904211008 58 227 0.0 0.0 0.00 0.03 0.00 69 997.5
20260904210009 58 227 0.0 0.0 0.00 0.05 0.00 71 997.4
20260904205504 58 227 0.0 0.0 0.00 0.05 0.00 74 997.4
20260904204004 61 227 0.0 0.0 0.00 0.05 0.00 75 997.3
20260904200507 61 233 0.0 0.0 0.00 0.05 0.00 75 997.1